When you browse on this site, cookies collect data to enhance your experience and personalize the content and advertising you see.
Visit our Privacy Policy to learn more. By continuing to use the site, you agree to this use of cookies and data.
  • In Switzerland
  • List of Countries
  • For 7 days
  • Water Temperature
  • Weather Map
  • Weather Widgets
  • user-avatar
    Login

    Hourly Weather Oberursel

    Today, 28 May, Thursday

    Time Temperature Precipitation Wind Pressure Humidity
    00:00 +15°C° 0 mm 2 mps 754 mmHg 78%
    01:00 +14°C° 0 mm 3 mps 754 mmHg 83%
    02:00 +13°C° 0.1 mm 3 mps 754 mmHg 85%
    03:00 +13°C° 0.1 mm 3 mps 754 mmHg 87%
    04:00 +12°C° 0.1 mm 4 mps 754 mmHg 88%
    05:00 +12°C° 0 mm 4 mps 755 mmHg 83%
    06:00 +12°C° 0 mm 4 mps 755 mmHg 79%
    07:00 +13°C° 0 mm 5 mps 755 mmHg 74%
    08:00 +14°C° 0 mm 4 mps 755 mmHg 65%
    09:00 +15°C° 0 mm 4 mps 755 mmHg 57%
    10:00 +17°C° 0 mm 4 mps 755 mmHg 48%
    11:00 +18°C° 0 mm 4 mps 755 mmHg 44%
    12:00 +19°C° 0 mm 4 mps 755 mmHg 41%
    13:00 +20°C° 0 mm 4 mps 754 mmHg 37%
    14:00 +20°C° 0 mm 4 mps 754 mmHg 37%
    15:00 +20°C° 0 mm 4 mps 754 mmHg 37%
    16:00 +20°C° 0 mm 4 mps 753 mmHg 37%
    17:00 +19°C° 0 mm 4 mps 753 mmHg 42%
    18:00 +18°C° 0 mm 4 mps 753 mmHg 48%
    19:00 +17°C° 0 mm 4 mps 753 mmHg 53%
    20:00 +16°C° 0 mm 3 mps 754 mmHg 58%
    21:00 +13°C° 0 mm 3 mps 754 mmHg 62%
    22:00 +11°C° 0 mm 3 mps 754 mmHg 67%
    23:00 +12°C° 0 mm 2 mps 754 mmHg 71%

    Tomorrow, 29 May, Friday

    Time Temperature Precipitation Wind Pressure Humidity
    00:00 +10°C° 0 mm 2 mps 754 mmHg 76%
    01:00 +9°C° 0 mm 2 mps 754 mmHg 80%
    02:00 +9°C° 0 mm 2 mps 754 mmHg 82%
    03:00 +9°C° 0 mm 2 mps 754 mmHg 84%
    04:00 +8°C° 0 mm 2 mps 753 mmHg 86%
    05:00 +9°C° 0 mm 2 mps 753 mmHg 82%
    06:00 +10°C° 0 mm 2 mps 753 mmHg 79%
    07:00 +12°C° 0 mm 2 mps 753 mmHg 75%
    08:00 +13°C° 0 mm 3 mps 753 mmHg 68%
    09:00 +16°C° 0 mm 3 mps 753 mmHg 60%
    10:00 +18°C° 0 mm 3 mps 753 mmHg 52%
    11:00 +19°C° 0 mm 3 mps 753 mmHg 48%
    12:00 +19°C° 0 mm 4 mps 752 mmHg 43%
    13:00 +20°C° 0 mm 4 mps 752 mmHg 38%
    14:00 +20°C° 0 mm 4 mps 751 mmHg 39%
    15:00 +20°C° 0 mm 4 mps 751 mmHg 39%
    16:00 +21°C° 0 mm 4 mps 750 mmHg 39%
    17:00 +20°C° 0 mm 4 mps 750 mmHg 44%
    18:00 +18°C° 0 mm 4 mps 750 mmHg 49%
    19:00 +17°C° 0 mm 4 mps 750 mmHg 53%
    20:00 +15°C° 0 mm 4 mps 750 mmHg 57%
    21:00 +14°C° 0 mm 4 mps 750 mmHg 62%
    22:00 +12°C° 0 mm 3 mps 750 mmHg 66%
    23:00 +11°C° 0 mm 3 mps 750 mmHg 69%

    Day after tomorrow, 30 May, Saturday

    Time Temperature Precipitation Wind Pressure Humidity
    00:00 +11°C° 0 mm 3 mps 751 mmHg 73%
    01:00 +10°C° 0 mm 2 mps 751 mmHg 76%
    02:00 +9°C° 0 mm 2 mps 751 mmHg 78%
    03:00 +9°C° 0 mm 2 mps 750 mmHg 79%
    04:00 +8°C° 0 mm 2 mps 750 mmHg 80%
    05:00 +10°C° 0 mm 2 mps 750 mmHg 75%
    06:00 +12°C° 0 mm 2 mps 751 mmHg 69%
    07:00 +12°C° 0 mm 3 mps 751 mmHg 64%
    08:00 +13°C° 0 mm 3 mps 750 mmHg 56%
    09:00 +15°C° 0 mm 4 mps 750 mmHg 48%
    10:00 +17°C° 0 mm 5 mps 750 mmHg 40%
    11:00 +17°C° 0 mm 5 mps 750 mmHg 40%
    12:00 +19°C° 0 mm 5 mps 750 mmHg 40%
    13:00 +19°C° 0 mm 5 mps 750 mmHg 40%
    14:00 +19°C° 0 mm 5 mps 749 mmHg 42%
    15:00 +19°C° 0 mm 4 mps 749 mmHg 44%
    16:00 +19°C° 0 mm 4 mps 749 mmHg 45%
    17:00 +18°C° 0 mm 3 mps 749 mmHg 51%
    18:00 +17°C° 0 mm 3 mps 748 mmHg 56%
    19:00 +16°C° 0 mm 2 mps 748 mmHg 62%
    20:00 +15°C° 0 mm 2 mps 749 mmHg 67%
    21:00 +13°C° 0 mm 2 mps 749 mmHg 72%
    22:00 +12°C° 0 mm 2 mps 749 mmHg 77%
    23:00 +10°C° 0 mm 2 mps 749 mmHg 79%

    31 May, Sunday

    Time Temperature Precipitation Wind Pressure Humidity
    00:00 +10°C° 0 mm 2 mps 749 mmHg 82%
    01:00 +10°C° 0 mm 1 mps 749 mmHg 84%
    02:00 +9°C° 0 mm 2 mps 748 mmHg 85%
    03:00 +9°C° 0 mm 2 mps 748 mmHg 86%
    04:00 +8°C° 0 mm 2 mps 748 mmHg 88%
    05:00 +9°C° 0 mm 2 mps 748 mmHg 83%
    06:00 +10°C° 0 mm 2 mps 748 mmHg 78%
    07:00 +12°C° 0 mm 2 mps 749 mmHg 73%
    08:00 +14°C° 0 mm 2 mps 748 mmHg 66%
    09:00 +14°C° 0 mm 3 mps 748 mmHg 59%
    10:00 +17°C° 0 mm 3 mps 748 mmHg 52%
    11:00 +18°C° 0 mm 3 mps 748 mmHg 51%
    12:00 +19°C° 0 mm 4 mps 748 mmHg 49%
    13:00 +20°C° 0 mm 4 mps 748 mmHg 48%
    14:00 +20°C° 0 mm 4 mps 748 mmHg 50%
    15:00 +19°C° 0 mm 5 mps 748 mmHg 52%
    16:00 +19°C° 0 mm 5 mps 748 mmHg 54%
    17:00 +18°C° 0 mm 4 mps 748 mmHg 58%
    18:00 +17°C° 0 mm 3 mps 748 mmHg 62%
    19:00 +16°C° 0 mm 3 mps 748 mmHg 65%
    20:00 +16°C° 0 mm 2 mps 748 mmHg 67%
    21:00 +15°C° 0 mm 1 mps 748 mmHg 68%
    22:00 +15°C° 0 mm 1 mps 748 mmHg 69%
    23:00 +14°C° 0 mm 1 mps 748 mmHg 73%

    1 June, Monday

    Time Temperature Precipitation Wind Pressure Humidity
    00:00 +14°C° 0 mm 1 mps 748 mmHg 76%
    01:00 +13°C° 0 mm 1 mps 748 mmHg 80%
    02:00 +13°C° 0 mm 1 mps 748 mmHg 81%
    03:00 +13°C° 0 mm 1 mps 747 mmHg 82%
    04:00 +13°C° 0 mm 2 mps 747 mmHg 84%
    05:00 +14°C° 0 mm 2 mps 747 mmHg 81%
    06:00 +14°C° 0 mm 2 mps 747 mmHg 79%
    07:00 +15°C° 0 mm 2 mps 747 mmHg 76%
    08:00 +17°C° 0 mm 2 mps 747 mmHg 71%
    09:00 +19°C° 0 mm 3 mps 747 mmHg 65%
    10:00 +21°C° 0 mm 3 mps 747 mmHg 60%
    11:00 +22°C° 0.2 mm 3 mps 747 mmHg 59%
    12:00 +22°C° 0.2 mm 3 mps 747 mmHg 59%
    13:00 +24°C° 0.2 mm 3 mps 746 mmHg 58%
    14:00 +24°C° 0.4 mm 3 mps 746 mmHg 60%
    15:00 +23°C° 0.4 mm 4 mps 746 mmHg 62%
    16:00 +22°C° 0.4 mm 4 mps 745 mmHg 64%
    17:00 +22°C° 0.1 mm 4 mps 745 mmHg 65%
    18:00 +22°C° 0.1 mm 3 mps 745 mmHg 65%
    19:00 +21°C° 0.1 mm 3 mps 745 mmHg 66%
    20:00 +20°C° 0 mm 3 mps 745 mmHg 69%
    21:00 +18°C° 0 mm 3 mps 745 mmHg 73%
    22:00 +17°C° 0 mm 3 mps 746 mmHg 76%
    23:00 +16°C° 0 mm 3 mps 746 mmHg 76%

    2 June, Tuesday

    Time Temperature Precipitation Wind Pressure Humidity
    00:00 +16°C° 0 mm 3 mps 745 mmHg 77%
    01:00 +15°C° 0 mm 2 mps 745 mmHg 77%
    02:00 +14°C° 0 mm 2 mps 745 mmHg 79%
    03:00 +14°C° 0 mm 2 mps 745 mmHg 80%
    04:00 +13°C° 0 mm 2 mps 745 mmHg 82%
    05:00 +14°C° 0 mm 2 mps 745 mmHg 78%
    06:00 +15°C° 0 mm 2 mps 745 mmHg 75%
    07:00 +16°C° 0 mm 3 mps 745 mmHg 72%
    08:00 +18°C° 0 mm 3 mps 745 mmHg 65%
    09:00 +19°C° 0 mm 4 mps 745 mmHg 58%
    10:00 +21°C° 0 mm 4 mps 745 mmHg 51%
    11:00 +22°C° 0 mm 4 mps 745 mmHg 48%
    12:00 +23°C° 0 mm 4 mps 744 mmHg 44%
    13:00 +25°C° 0 mm 4 mps 744 mmHg 41%
    14:00 +25°C° 0 mm 4 mps 744 mmHg 41%
    15:00 +26°C° 0 mm 4 mps 743 mmHg 41%
    16:00 +26°C° 0 mm 4 mps 743 mmHg 42%
    17:00 +25°C° 0 mm 4 mps 743 mmHg 46%
    18:00 +23°C° 0 mm 4 mps 743 mmHg 51%
    19:00 +22°C° 0 mm 4 mps 743 mmHg 56%
    20:00 +21°C° 0 mm 3 mps 743 mmHg 60%
    21:00 +19°C° 0 mm 3 mps 743 mmHg 64%
    22:00 +18°C° 0 mm 3 mps 743 mmHg 68%
    23:00 +17°C° 0 mm 3 mps 743 mmHg 71%
    Show more